STARLINK-6086, 56545

Orbit data source: Space-Track

STARLINK-6086, 56545 is a payload satellite owned by SpaceX/Seattle (US) in LEO that was launched on Sun, 14 May 2023 UTC via an FALCON 9 launch vehicle from the Air Force Eastern Test Range (AFETR). Payload-class satellites include a variety of spacecraft equipped with specific instruments for various scientific and technological missions. These include communications satellites like Starlink; space stations such as the ISS; scientific satellites like the Hubble; Earth observation satellites from companies like Planet Labs, Umbra, and HawkEye 360; GPS; miniature CubeSats for education and research; and military/defense satellites.

Loading next visibility...
Identifier
56545, 2023-065AU
Orbit
LEO
Country
Flag of USUS
Related business
Manufacturer
SpaceX/Seattle
Mission
Operational Commercial Communications
Bus & Motor
STARLINK, Unknown motor
Mass
305 kg wet, ~290 kg dry
Launch date (UTC)
2023-05-14 (3 years ago)
Launch vehicle
FALCON 9
Launch site
Air Force Eastern Test Range (AFETR)
Object type
Payload
Rocket body
Debris
Shape & HBR
Box + 1 Pan, 10.1 m
Radar Cross Section
11.087 m², Large (>1 m²)

Expand to show TLE details & history
Last TLE update: 2 days ago

TLE from 2 days ago
0 STARLINK-6086
1 56545U 23065AU  26170.97196438 -.00029809  00000-0 -10828-2 0  9995
2 56545  43.0147   6.0627 0001983 342.7865  17.2920 15.27435443172114
Epoch: 2026-06-19T23:19Z
TLE epoch observation values (Epoch: 2026-06-19T23:19:37.722Z)
Latitude
0.00003°
Longitude
107.96228°
Altitude
481.96 km
Speed
7.627 km/s
True Right ascension
00h 24m 15s
True Declination
0° 00' 00"
Sunlit
Object was in daylight at epoch
Visualization orbit readout
Latitude
Unknown
Longitude
Unknown
Altitude
Unknown
Speed
Unknown
Apparent Right ascension
Unknown
Apparent Declination
Unknown
Sunlit
N/A
Visualization observer readout
Local Sidereal Time
21:24:37
Azimuth
Unknown
Elevation
Unknown
Doppler factor
Unknown
Orbital elements
Apogee altitude
486.786 km
Perigee altitude
484.064 km
Semi-major axis
6,863.562 km
Eccentricity
0.0002
Inclination
43.0147°
RAAN
6.0627°
Arg. of periapsis
342.7865°
True anomaly
17.29876°
Mean anomaly
17.292°
Eccentric anomaly
17.29538°
Mean motion
3.81697 °/min
Orbital period
94.32 mins
BSTAR
-0.0010828
Loading maneuver chart data...
Computing Atmospheric mass density...
Loading historical data...
Loading historical data...
Loading historical data...
Loading historical data...
Loading historical data...
Loading historical data...
Loading historical data...

Documentation

Showing up to 5 results
|